Regional Weather Roundup
Issued by NWS

Home | Current Version | Previous Version | Text Only | Print | Product List | Glossary On
Versions: 1 2 3 4 5 6 7 8 9 10 11 12 13 14 15 16 17 18 19 20 21 22 23 24 25 26 27 28 29 30 31 32 33 34 35 36 37 38 39 40 41 42 43 44 45 46 47 48 49 50
000
ASUS43 KDMX 051807
RWRIA

WEATHER ROUNDUP FOR IOWA
NATIONAL WEATHER SERVICE DES MOINES IA
100 PM CDT TUE MAY 05 2015

NOTE: "FAIR" INDICATES FEW OR NO CLOUDS BELOW 12,000 FEET WITH NO
SIGNIFICANT WEATHER AND/OR OBSTRUCTIONS TO VISIBILITY.

* - THESE STATIONS ARE NOT NWS STATIONS...THUS NOT UNDER NWS
QUALITY CONTROL.  THEY ALSO DO NOT REPORT WEATHER SUCH
AS PRECIPITATION OR FOG.

IAZ001>003-012>014-020>022-031>034-043>046-051900-
   NORTHWEST IOWA

CITY           SKY/WX    TMP DP  RH WIND       PRES   REMARKS
CARROLL *      PTSUNNY   72  64  78 S8G16     30.09F
CHEROKEE *     CLOUDY    61  60  96 SE7       30.10F FOG
DENISON *      MOSUNNY   72  64  78 S13       30.06F
LE MARS *      CLOUDY    61  57  88 SE8       30.09F
ORANGE CITY *  CLOUDY    59  54  82 SE6       30.09S
SHELDON *      CLOUDY    63  59  88 E14       30.08F
SIOUX CITY     CLOUDY    63  59  87 S7        30.08F FOG
6HR MIN TEMP:  55; 6HR MAX TEMP:  63; 6HR PCP: TRACE;

SPENCER        CLOUDY    59  58  96 SE10      30.12S FOG
6HR MIN TEMP:  54; 6HR MAX TEMP:  59; 6HR PCP:  0.03;

STORM LAKE *   CLOUDY   N/A N/A N/A S8        30.11F
$$

IAZ055>058-069>071-079>083-090>094-051900-
   SOUTHWEST IOWA

CITY           SKY/WX    TMP DP  RH WIND       PRES   REMARKS
ATLANTIC *     PTSUNNY   73  61  64 S15G22    30.09F
AUDUBON *      SUNNY     73  63  68 S8        30.11S
CLARINDA *     PTSUNNY   72  63  73 S9G16     30.11F
COUNCIL BLFS * MOSUNNY   72  68  88 S15       30.08F
CRESTON *      CLOUDY    73  64  73 S13       30.11F
HARLAN  *      MOSUNNY   72  66  83 S16       30.11F
LAMONI         CLOUDY    73  62  68 S8        30.12F
6HR MIN TEMP:  60; 6HR MAX TEMP:  73;

RED OAK *      PTSUNNY   73  64  73 S15G21    30.09F
SHENANDOAH *   CLOUDY    72  63  73 S13       30.09F
$$

IAZ047>049-059>061-072>074-084-051900-
   CENTRAL IOWA

CITY           SKY/WX    TMP DP  RH WIND       PRES   REMARKS
AMES           LGT RAIN  68  62  81 S7        30.12S
6HR MIN TEMP:  60; 6HR MAX TEMP:  70; 6HR PCP:  0.01;

ANKENY *       PTSUNNY   73  63  68 VRB6      30.11F
CHARITON *     PTSUNNY   73  63  68 S14       30.12F
DES MOINES     CLOUDY    75  61  61 S9        30.11F
6HR MIN TEMP:  62; 6HR MAX TEMP:  76; 6HR PCP: TRACE;

GRINNELL*      PTSUNNY   73  61  64 S5        30.13F
KNOXVILLE *    SUNNY     75  61  60 CALM      30.11S
MARSHALLTOWN   CLOUDY    68  63  84 E8        30.13S
6HR MIN TEMP:  59; 6HR MAX TEMP:  68; 6HR PCP:  0.05;

PELLA *        PTSUNNY   76  65  67 S9        30.13F
PERRY *        PTSUNNY   70  63  78 S10       30.11S
$$

IAZ004>006-015-016-023>025-035-036-051900-
   NORTH CENTRAL IOWA

CITY           SKY/WX    TMP DP  RH WIND       PRES   REMARKS
ALGONA *       FOG       55  55 100 E15       30.14S VSB 3/4
CLARION *      FOG       57  57 100 E13       30.14S VSB 1
ESTHERVILLE    LGT RAIN  56  55  97 SE12      30.13R FOG
6HR MIN TEMP:  49; 6HR MAX TEMP:  59; 6HR PCP:  0.04;

FORT DODGE *   CLOUDY    63  61  94 E8        30.13S
MASON CITY     CLOUDY    55  54  96 E14G21    30.18S FOG
6HR MIN TEMP:  53; 6HR MAX TEMP:  56; 6HR PCP:  0.18;

FOREST CITY *  CLOUDY    54  54 100 E12       30.16S FOG
IOWA FALLS *   FOG       57  57 100 E13       30.16S VSB 1
$$

IAZ007>011-017>019-026>030-037>042-050>054-066-051900-
   NORTHEAST IOWA

CITY           SKY/WX    TMP DP  RH WIND       PRES   REMARKS
CEDAR RAPIDS   CLOUDY    62  62 100 E13       30.16S FOG
6HR MIN TEMP:  60; 6HR MAX TEMP:  63; 6HR PCP:  0.01;

CHARLES CITY * CLOUDY    55  55 100 E17       30.18S
CLINTON *      PTSUNNY   63  57  82 E8        30.21F
DECORAH *      CLOUDY    52  52 100 E13G20    30.20S FOG
DUBUQUE        LGT RAIN  54  52  93 E9        30.20F FOG
6HR MIN TEMP:  52; 6HR MAX TEMP:  54; 6HR PCP:  0.06;

MONTICELLO *   CLOUDY    57  57 100 E9        30.19S
OELWEIN *      CLOUDY    54  54 100 E15       30.19S
WATERLOO       CLOUDY    56  54  93 E12       30.17S
6HR MIN TEMP:  55; 6HR MAX TEMP:  61; 6HR PCP: TRACE;

$$

IAZ064-065-067-068-078-051900-
   EAST CENTRAL IOWA

CITY           SKY/WX    TMP DP  RH WIND       PRES   REMARKS
DAVENPORT      CLOUDY    64  60  87 E13       30.18F FOG
6HR MIN TEMP:  57; 6HR MAX TEMP:  64;

IOWA CITY      CLOUDY    67  63  87 E8        30.16F FOG
6HR MIN TEMP:  63; 6HR MAX TEMP:  70;

MT. PLEASANT * CLOUDY    78  62  59 W7        30.14S
MUSCATINE *    MOSUNNY   75  63  64 CALM      30.14F
QUAD CITIES    PTSUNNY   68  61  78 NE13      30.16F HAZE
6HR MIN TEMP:  58; 6HR MAX TEMP:  68;

$$

IAZ062-063-075>077-085>089-095>099-051900-
   SOUTHEAST IOWA

CITY           SKY/WX    TMP DP  RH WIND       PRES   REMARKS
BURLINGTON     MOSUNNY   77  65  66 S6        30.13F
6HR MIN TEMP:  61; 6HR MAX TEMP:  77;

FAIRFIELD *    CLOUDY    75  61  60 S6        30.13F
FORT MADISON * PTSUNNY   75  63  64 S6        30.14F
KEOKUK *       SUNNY     77  64  65 SW10      30.13F
OSKALOOSA *    CLOUDY    74  60  60 SW5       30.12F
CENTERVILLE *  SUNNY     75  64  69 S6        30.14F
OTTUMWA        PTSUNNY   76  62  62 SE9       30.12S
6HR MIN TEMP:  59; 6HR MAX TEMP:  77;

WASHINGTON *   PTSUNNY   77  77 100 VRB5      30.13F
$$

ABBREVIATIONS USED IN REMARKS
   TC - TEMPERATURES IN CELSIUS
  WCI - WIND CHILL INDEX
   HX - HEAT INDEX
  VSB - VISIBILITY
$$



USA.gov is the U.S. government's official web portal to all federal, state and local government web resources and services.